Location: Cazaux
(43.6580°N, 0.2613°E)
Time: 17:40:02
(UTC+00:00)

Daily predictions for brighter satellites

Satellite Brightness Start Highest point End
(mag) Time Altitude Azimuth Time Altitude Azimuth Time Altitude Azimuth
Cosmos 2233 Rocket 4.1 16:55:44 10° N 17:01:58 56° ENE 17:08:06 10° SSE
USA 229 DEB 4.1 16:57:26 10° S 17:03:27 41° ESE 17:09:43 10° NE
USA 229 4.2 16:57:33 10° S 17:03:34 41° ESE 17:09:48 10° NE
Cosmos 1743 Rocket 3.5 17:02:46 10° N 17:07:07 68° E 17:11:28 10° SSE
Cosmos 1805 Rocket 4.4 17:03:35 10° NNE 17:07:20 27° ENE 17:11:04 10° SE
Envisat 3.7 17:04:07 10° SE 17:08:30 30° ENE 17:12:54 10° N
NOSS 3-1 (A) 4.5 17:04:57 10° SSE 17:09:07 23° ESE 17:13:39 10° ENE
NOSS 3-1 (C) 3.9 17:04:47 10° S 17:09:44 37° ESE 17:15:17 10° NE
AQUARIUS 4.3 17:05:45 10° SSE 17:10:08 54° ENE 17:14:32 10° N
Cosmos 1455 3.8 17:07:32 10° SSW 17:11:04 38° WNW 17:14:37 10° N
YAOGAN 6 4.1 17:12:42 10° ESE 17:14:53 16° ENE 17:17:05 10° NNE
Okean O Rocket 3.4 17:12:19 10° SSW 17:16:24 37° W 17:20:29 10° NNW
Cosmos 2227 Rocket 2.7 17:11:37 10° NNW 17:16:54 38° ENE 17:22:07 10° SE
Cosmos 2344 4.0 17:09:29 10° SW 17:16:57 66° NW 17:25:09 10° NE
Cosmos 2297 Rocket 2.6 17:11:53 10° NNW 17:17:13 40° ENE 17:22:31 10° SE
CORIOLIS 4.2 17:12:43 10° SSE 17:18:01 63° ENE 17:23:24 10° N
IRS-1C Rocket 4.2 17:16:12 10° SSE 17:21:29 86° WSW 17:26:48 10° NNW
SeaSat 1 2.6 17:18:57 10° SE 17:23:43 51° ENE 17:28:30 10° NNW
Meteor 2-10 Rocket 4.4 17:23:16 10° SSW 17:28:07 50° WNW 17:33:02 10° N
H-2A R/B 2.7 17:25:59 10° SSE 17:29:51 83° ENE 17:33:42 10° N
Cosmos 1500 Rocket 3.9 17:27:43 10° NNW 17:32:05 71° W 17:36:24 10° S
Meteor 2-20 4.5 17:26:43 10° S 17:32:42 62° E 17:38:46 10° NNE
Cosmos 1633 Rocket 4.0 17:33:51 10° NNE 17:37:31 25° ENE 17:41:11 10° SE
Meteor 2-2 Rocket 4.3 17:31:40 10° S 17:37:32 76° E 17:43:19 10° NNE
Geosat 4.0 17:32:35 10° NNE 17:37:39 79° ESE 17:42:40 10° SSW
Genesis I 3.7 17:33:55 10° SW 17:37:54 61° NW 17:41:52 10° NNE
SMAP 3.6 17:37:26 10° S 17:42:03 65° WSW 17:46:42 10° NNW
Meteor 1-27 4.5 17:37:16 10° SSW 17:42:53 74° WNW 17:48:37 10° N
Cosmos 2082 4.1 17:38:46 10° NNW 17:44:00 38° ENE 17:49:12 10° SE
COSMO-SKYMED 1 2.9 17:41:15 10° NNE 17:45:24 43° E 17:49:32 10° S
ERBS 3.1 17:43:03 10° SSW 17:46:04 33° SE 17:47:20 24° E
Cosmos 1862 4.0 17:43:54 10° NNE 17:47:28 31° ENE 17:51:00 10° SE
Cosmos 1666 Rocket 4.0 17:44:05 10° N 17:48:12 38° ENE 17:52:15 10° SE
Cosmos 2084 3.5 17:44:12 10° NW 17:48:31 78° SW 17:52:41 10° SSE
Cosmos 1607 3.9 17:42:54 10° NNW 17:49:09 75° NE 17:55:25 10° SE
Ariane Rocket 4.2 17:51:23 20° ENE 17:51:38 20° ENE 17:55:15 10° NNE
Sich 1 3.0 17:47:40 10° N 17:51:58 57° E 17:56:15 10° SSE
Cosmos 1328 Rocket 4.5 17:49:12 10° SE 17:52:54 26° E 17:54:25 22° ENE
Cosmos 1697 Rocket 3.2 17:48:18 10° S 17:53:25 37° ESE 17:57:08 17° NE
Cosmos 1238 Rocket 4.2 17:53:32 10° NNW 17:57:46 42° W 18:01:17 10° SSW
Cosmos 1151 Rocket 3.9 17:55:08 10° SSE 17:58:49 28° E 17:59:23 27° ENE
ATLAS 5 CENTAUR R/B 2.3 17:53:34 10° NW 17:59:25 79° NE 18:06:06 10° SE
BREEZE-M DEB (TANK) 3.0 17:58:52 10° SW 18:04:52 47° SSE 18:06:06 32° ESE
Cosmos 923 Rocket 4.1 18:02:03 10° S 18:07:06 53° ESE 18:10:51 18° NE
PSLV R/B 3.1 18:05:45 10° WSW 18:08:12 45° S 18:08:17 44° S
SKYMED 3 4.4 18:05:10 10° NNE 18:09:32 79° ESE 18:13:52 10° S
Cosmos 1356 Rocket 3.7 18:08:19 10° SSW 18:12:25 70° W 18:16:39 10° N
YAOGAN 1 2.5 18:08:34 10° SSE 18:12:48 57° ENE 18:17:03 10° N
Cosmos 1513 Rocket 4.5 18:10:42 10° N 18:17:09 82° E 18:23:30 10° S
Cosmos 1470 Rocket 4.4 18:14:50 10° N 18:17:57 32° NE 18:17:57 32° NE
CZ-4 R/B 4.4 18:15:42 10° SSE 18:19:49 85° WSW 18:24:00 10° NNW
Cosmos 2034 Rocket 4.0 18:13:32 10° N 18:19:51 64° E 18:26:09 10° SSE
Lacrosse 4 Rocket 1.2 18:15:58 10° SSW 18:20:00 67° ESE 18:21:00 47° NE
Okean-O 4.1 18:18:43 10° SSW 18:22:52 39° W 18:27:02 10° NNW
NOAA 11 4.2 18:20:20 10° SSE 18:25:35 54° ENE 18:30:52 10° N
USA 116 4.1 18:21:50 13° NNE 18:25:56 76° ESE 18:30:57 10° S
Meteor 2-11 Rocket 4.3 18:21:31 10° N 18:27:38 70° E 18:33:44 10° SSE
Cosmos 1656 3.9 18:22:40 10° SSW 18:28:12 68° WNW 18:33:00 14° NNE
Cosmos 1633 3.0 18:26:37 10° NNW 18:30:14 61° W 18:33:49 10° S
CSL-04 Debris 4.1 18:25:19 10° SSE 18:30:48 87° ENE 18:36:21 10° NNW
SKYMED 2 4.1 18:29:17 10° N 18:33:34 57° WNW 18:37:48 10° SSW
CZ-4 R/B 1.9 18:30:26 10° S 18:34:35 62° W 18:38:40 10° NNW
Cosmos 724 4.3 18:33:57 10° NNW 18:39:43 56° NE 18:40:39 50° E
Tsikada Rocket 4.0 18:33:42 10° S 18:39:57 64° E 18:46:17 10° NNE
DMSP B5D1-3 4.4 18:37:40 32° NNE 18:40:05 67° ESE 18:45:12 10° S
USA 215 3.5 18:40:26 41° ENE 18:42:10 51° NNE 18:48:27 10° NW
Cosmos 1816 Rocket 4.4 18:40:59 10° S 18:47:17 76° E 18:53:40 10° N
YAOGAN 6 4.3 18:44:58 10° SSW 18:48:09 32° W 18:51:19 10° NNW
CSL-04 Rocket 4.0 18:44:32 10° S 18:49:53 66° WSW 18:55:11 10° NNW
Cosmos 1939 Rocket 4.4 18:52:15 28° N 18:52:15 28° N 18:54:16 10° N
NOSS 2-3 (E) 3.5 18:47:21 10° SW 18:51:41 89° WNW 18:51:48 85° NNE
USA 229 DEB 4.5 18:48:00 10° WSW 18:54:18 46° NW 18:58:48 20° NNE
USA 229 4.5 18:48:06 10° WSW 18:54:24 46° NW 18:58:52 20° NNE
Cosmos 1980 Rocket 2.1 18:51:19 10° SSW 18:56:39 66° SE 18:56:39 66° SE
NOSS 3-1 (A) 3.7 18:53:47 10° SW 18:59:16 62° NW 19:01:51 35° NNE
NOSS 3-1 (C) 4.3 18:55:06 10° WSW 19:00:25 42° NW 19:03:50 23° NNE
Cosmos 2227 Rocket 3.7 18:55:49 10° NW 19:00:53 34° WSW 19:05:55 10° SSW
NOSS 2-3 (D) 3.8 18:56:46 10° SW 19:00:45 73° WSW 19:00:45 73° WSW
Cosmos 2297 Rocket 3.9 18:56:11 10° NW 19:01:07 32° WSW 19:06:02 10° SSW
Cosmos 1371 Rocket 4.2 18:59:05 10° NNW 19:03:21 60° N 19:03:21 60° N
Cosmos 2112 Rocket 4.4 19:12:06 10° SW 19:17:13 58° WNW 19:17:44 55° NW
Cosmos 2263 Rocket 3.9 19:20:55 10° NNW 19:22:54 22° N 19:22:54 22° N
Ariane Rocket 4.0 19:31:36 42° NW 19:31:36 42° NW 19:35:11 10° NNW
Cosmos 1697 Rocket 4.0 19:32:13 10° WSW 19:37:23 35° NW 19:38:55 30° NNW
CENTAUR R/B 4.4 19:38:45 10° NNW 19:43:18 24° N 19:43:18 24° N
USA 215 4.5 20:27:48 35° WNW 20:27:48 35° WNW 20:31:34 10° NW
